TimeEST,TemperatureF,Dew PointF,Humidity,Sea Level PressureIn,VisibilityMPH,Wind Direction,Wind SpeedMPH,Gust SpeedMPH,PrecipitationIn,Events,Conditions,WindDirDegrees,DateUTC
12:15 AM,32.0,21.2,64,30.06,10.0,WSW,8.1,16.1,N/A,,Mostly Cloudy,240,2013-01-04 05:15:00
12:35 AM,32.0,21.2,64,30.06,10.0,West,8.1,-,N/A,,Scattered Clouds,260,2013-01-04 05:35:00
12:55 AM,32.0,21.2,64,30.06,10.0,West,10.4,16.1,N/A,,Clear,260,2013-01-04 05:55:00
1:15 AM,32.0,21.2,64,30.06,10.0,West,8.1,-,N/A,,Clear,260,2013-01-04 06:15:00
1:35 AM,30.2,21.2,69,30.06,10.0,West,6.9,-,N/A,,Clear,260,2013-01-04 06:35:00
1:55 AM,30.2,21.2,69,30.06,10.0,West,8.1,-,N/A,,Clear,260,2013-01-04 06:55:00
2:15 AM,30.2,21.2,69,30.06,10.0,West,8.1,-,N/A,,Clear,260,2013-01-04 07:15:00
2:35 AM,30.2,21.2,69,30.07,10.0,WSW,4.6,-,N/A,,Clear,250,2013-01-04 07:35:00
2:55 AM,30.2,21.2,69,30.07,10.0,West,5.8,-,N/A,,Clear,260,2013-01-04 07:55:00
3:15 AM,30.2,21.2,69,30.07,10.0,West,9.2,-,N/A,,Clear,270,2013-01-04 08:15:00
3:35 AM,30.2,21.2,69,30.07,10.0,West,6.9,-,N/A,,Mostly Cloudy,260,2013-01-04 08:35:00
3:55 AM,30.2,21.2,69,30.07,10.0,WSW,5.8,-,N/A,,Overcast,250,2013-01-04 08:55:00
4:15 AM,32.0,23.0,69,30.06,10.0,WSW,5.8,-,N/A,,Overcast,250,2013-01-04 09:15:00
6:42 AM,33.8,21.2,60,30.08,10.0,West,11.5,19.6,N/A,,Overcast,260,2013-01-04 11:42:00
7:45 AM,33.8,23.0,65,30.07,10.0,West,11.5,17.3,N/A,,Overcast,260,2013-01-04 12:45:00
8:45 AM,33.8,21.2,60,30.08,10.0,West,9.2,16.1,N/A,,Overcast,260,2013-01-04 13:45:00
9:45 AM,35.6,21.2,56,30.09,10.0,West,13.8,26.5,N/A,,Mostly Cloudy,270,2013-01-04 14:45:00
10:45 AM,35.6,19.4,52,30.07,10.0,WNW,13.8,24.2,N/A,,Mostly Cloudy,290,2013-01-04 15:45:00
11:45 AM,35.6,19.4,52,30.03,10.0,West,11.5,23.0,N/A,,Mostly Cloudy,280,2013-01-04 16:45:00
12:45 PM,37.4,19.4,48,30.00,10.0,West,18.4,25.3,N/A,,Mostly Cloudy,260,2013-01-04 17:45:00
1:45 PM,37.4,19.4,48,29.98,10.0,West,13.8,25.3,N/A,,Scattered Clouds,270,2013-01-04 18:45:00
2:45 PM,37.4,21.2,52,29.96,10.0,West,13.8,23.0,N/A,,Clear,280,2013-01-04 19:45:00
3:45 PM,35.6,21.2,56,29.97,10.0,West,13.8,25.3,N/A,,Clear,270,2013-01-04 20:45:00
4:45 PM,35.6,19.4,52,29.97,10.0,West,10.4,16.1,N/A,,Partly Cloudy,280,2013-01-04 21:45:00
5:45 PM,35.6,15.8,44,29.99,10.0,WSW,9.2,-,N/A,,Clear,250,2013-01-04 22:45:00
6:45 PM,35.6,19.4,52,29.98,10.0,West,9.2,18.4,N/A,,Clear,280,2013-01-04 23:45:00
7:45 PM,33.8,19.4,56,29.99,10.0,West,8.1,-,N/A,,Clear,270,2013-01-05 00:45:00
8:45 PM,33.8,19.4,56,29.98,10.0,West,10.4,15.0,N/A,,Clear,270,2013-01-05 01:45:00
9:45 PM,33.8,19.4,56,29.99,10.0,WNW,5.8,16.1,N/A,,Clear,290,2013-01-05 02:45:00
9:55 PM,32.0,21.2,64,29.99,10.0,West,8.1,-,N/A,,Clear,260,2013-01-05 02:55:00
10:15 PM,32.0,21.2,64,30.00,10.0,West,9.2,-,N/A,,Clear,260,2013-01-05 03:15:00
10:35 PM,32.0,21.2,64,30.00,10.0,WSW,6.9,-,N/A,,Clear,250,2013-01-05 03:35:00
10:55 PM,32.0,21.2,64,30.00,10.0,West,5.8,-,N/A,,Clear,270,2013-01-05 03:55:00
11:15 PM,32.0,21.2,64,30.01,10.0,West,4.6,-,N/A,,Clear,270,2013-01-05 04:15:00
11:35 PM,32.0,19.4,60,30.01,10.0,West,8.1,-,N/A,,Clear,260,2013-01-05 04:35:00
11:55 PM,32.0,19.4,60,30.02,10.0,West,10.4,-,N/A,,Clear,270,2013-01-05 04:55:00